Mountain Home, AR

6:46 AM CDT on July 22, 2017 (GMT -0500)
Baxter County Regional

Weather History for KBPK - April, 2013

Change the Weather History Date:

Monday, April 29, 2013

  Actual Average (KFLP) Record (KFLP)
Temperature  
Mean Temperature 65 °F -  
Max Temperature 84 °F 72 °F 84 °F (2003)
Min Temperature 46 °F 50 °F 33 °F (2008)
Growing Degree Days 15 (Base 50)    
Moisture  
Dew Point 54 °F    
Average Humidity 69    
Maximum Humidity 97    
Minimum Humidity 41    
Precipitation  
Precipitation 0.05 in - - ()
Sea Level Pressure  
Sea Level Pressure 29.86 in    
Wind  
Wind Speed 3 mph (SSE)    
Max Wind Speed 10 mph    
Max Gust Speed 16 mph    
Visibility 8 miles    
Events      
Averages and records for this station are not official NWS values.
T = Trace of Precipitation, MM = Missing Value Source: NWS Daily Summary

Daily Weather History Graph

Daily Weather History Graph

Search for Another Location

Airport or City:

Trip Planner

Search our weather history database for the weather conditions in past years. The results will help you decide how hot, cold, wet, or windy it might be!

Date:

Astronomy

Apr. 29, 2013 Rise Set
Actual Time 6:18 AM CDT 7:56 PM CDT
Civil Twilight 5:51 AM CDT 8:23 PM CDT
Nautical Twilight 5:18 AM CDT 8:57 PM CDT
Astronomical Twilight 4:43 AM CDT 9:32 PM CDT
Moon No Moon Rise 9:42 AM CDT (4/29)
Length of Visible Light 14h 32m
Length of Day
13h 37m
Waning Gibbous, 80% of the Moon is Illuminated
Apr 29
Waning Gibbous
May 2
Last Quarter
May 9
New
May 17
First Quarter
May 24
Full

Hourly Weather History & Observations

Time (CDT) Temp. Heat Index Dew Point Humidity Pressure Visibility Wind Dir Wind Speed Gust Speed Precip Events Conditions
12:53 AM 52.0 °F - 48.9 °F 89% 29.91 in 9.0 mi SE 3.5 mph - 0.01 in   Clear
1:53 AM 48.9 °F - 46.9 °F 93% 29.91 in 8.0 mi Calm Calm - N/A   Clear
2:53 AM 48.9 °F - 48.0 °F 97% 29.89 in 8.0 mi Calm Calm - 0.01 in   Clear
3:53 AM 48.9 °F - 48.0 °F 97% 29.89 in 7.0 mi Calm Calm - N/A   Clear
4:53 AM 48.0 °F - 46.0 °F 93% 29.89 in 7.0 mi Calm Calm - 0.01 in   Clear
5:53 AM 46.9 °F - 45.0 °F 93% 29.90 in 5.0 mi Calm Calm - N/A   Clear
6:53 AM 48.9 °F - 48.0 °F 97% 29.92 in 4.0 mi ENE 4.6 mph - 0.01 in   Clear
7:53 AM 53.1 °F - 51.1 °F 93% 29.95 in 8.0 mi Calm Calm - N/A   Clear
8:53 AM 60.1 °F - 53.1 °F 78% 29.94 in 9.0 mi SSE 3.5 mph - 0.01 in   Clear
9:53 AM 66.0 °F - 54.0 °F 65% 29.93 in 8.0 mi South 4.6 mph - N/A   Clear
10:53 AM 71.1 °F - 55.0 °F 57% 29.92 in 10.0 mi SSE 4.6 mph - N/A   Clear
11:53 AM 75.0 °F - 57.0 °F 53% 29.91 in 10.0 mi SSE 5.8 mph - N/A   Clear
12:53 PM 80.1 °F 80.7 °F 59.0 °F 48% 29.87 in 10.0 mi Variable 4.6 mph - N/A   Clear
1:53 PM 81.0 °F 81.0 °F 57.0 °F 44% 29.85 in 10.0 mi Variable 4.6 mph - N/A   Clear
2:53 PM 84.0 °F 83.5 °F 57.9 °F 41% 29.82 in 10.0 mi SSW 10.4 mph 16.1 mph N/A   Clear
3:53 PM 79.0 °F - 57.0 °F 47% 29.81 in 9.0 mi South 5.8 mph - N/A   Clear
4:53 PM 78.1 °F - 57.9 °F 50% 29.80 in 8.0 mi South 4.6 mph - N/A   Clear
5:53 PM 79.0 °F - 59.0 °F 50% 29.79 in 9.0 mi SSE 6.9 mph - N/A   Scattered Clouds
6:53 PM 79.0 °F - 57.9 °F 48% 29.78 in 8.0 mi South 6.9 mph - N/A   Partly Cloudy
7:53 PM 75.0 °F - 55.9 °F 51% 29.79 in 8.0 mi South 5.8 mph - N/A   Clear
8:53 PM 72.0 °F - 57.9 °F 61% 29.81 in 9.0 mi South 5.8 mph - N/A   Clear
9:53 PM 70.0 °F - 59.0 °F 68% 29.82 in 9.0 mi South 4.6 mph - N/A   Clear
10:53 PM 68.0 °F - 59.0 °F 73% 29.82 in 9.0 mi SSE 5.8 mph - N/A   Clear
11:53 PM 66.9 °F - 59.0 °F 76% 29.83 in 8.0 mi SSE 5.8 mph - N/A   Clear